This demonstration page uses our WeatherBlox Daily Observations layout. Learn more.

Left ArrowRight Arrow

Hourly Observations for March 28, 2018

Temp ( °F °C ) Dew Point ( °F °C ) Humidity (%) Winds ( mph kmh ) Pressure ( in mb ) Visibility ( mi km ) Precip ( " mm )
12:07 am 00:07 Cloudy with Thunderstorms 59 15 57 13.9 93 93 E 15 24 29.94 1014 6 10 0.02 0.51
12:45 am 00:45 Cloudy 59 15 56 13.3 90 90 E 15 24 29.88 1012 10 16 0.04 1.02
12:53 am 00:53 Mostly Cloudy 59 15 56 13.3 90 90 E 12 19 29.89 1012 10 16 0.04 1.02
1:27 am 01:27 Mostly Cloudy with Thunderstorms 59 15 56 13.3 90 90 NW 3 6 29.91 1013 9 14 0.00 0.03
1:44 am 01:44 Cloudy with Thunderstorms 59 15 57 14 94 94 WSW 6 9 29.94 1014 10 16 0.00 0.00
1:47 am 01:47 Cloudy with Thunderstorms 59 15 57 14 94 94 WSW 3 6 29.94 1014 6 10 0.02 0.51
1:53 am 01:53 Cloudy with Thunderstorms 59 15 57 13.9 93 93 SW 6 9 29.95 1014 5 8 0.04 1.02
2:53 am 02:53 Cloudy with Thunderstorms 59 15 58 14.4 96 96 S 3 6 29.93 1014 6 10 0.15 3.81
3:06 am 03:06 Cloudy with Light Rain 59 15 57 14 94 94 E 5 7 29.91 1013 8 13 0.00 0.00
3:53 am 03:53 Cloudy with Light Rain 59 15 58 14.4 96 96 Calm 29.91 1013 10 16 0.08 2.03
4:53 am 04:53 Cloudy with Light Rain 59 15 57 13.9 93 93 E 8 13 29.92 1013 7 11 0.11 2.79
5:12 am 05:12 Cloudy with Light Rain 59 15 57 14 94 94 VRB 3 6 29.94 1014 9 14 0.00 0.00
5:28 am 05:28 Cloudy with Light Rain 59 15 57 14 94 94 E 9 15 29.94 1014 6 10 0.00 0.00
5:53 am 05:53 Cloudy with Light Rain 59 15 58 14.4 96 96 ESE 6 9 29.94 1014 7 11 0.14 3.56
6:53 am 06:53 Cloudy with Light Rain 59 15 58 14.4 96 96 ESE 16 26 29.87 1012 8 13 0.14 3.56
7:40 am 07:40 Cloudy 61 16 57 14 88 88 NE 9 15 29.88 1012 10 16 0.00 0.00
7:53 am 07:53 Mostly Cloudy 60 15.6 58 14.4 93 93 Calm 29.91 1013 10 16 0.04 1.02
8:53 am 08:53 Cloudy 61 16.1 59 15 93 93 Calm 29.91 1013 10 16 0.00 0.00
9:53 am 09:53 Cloudy 62 16.7 60 15.6 93 93 E 6 9 29.88 1012 10 16 0.00 0.00
10:53 am 10:53 Cloudy 63 17.2 59 15 87 87 E 8 13 29.87 1012 10 16 0.00 0.00
11:53 am 11:53 Cloudy 64 17.8 60 15.6 87 87 Calm 29.87 1012 10 16 0.00 0.00
12:53 pm 12:53 Cloudy 65 18.3 59 15 81 81 SSE 5 7 29.88 1012 10 16 0.00 0.00
1:42 pm 13:42 Cloudy 64 18 61 16 88 88 SE 3 6 29.85 1011 10 16 0.00 0.00
1:53 pm 13:53 Cloudy 65 18.3 59 15 81 81 SE 5 7 29.85 1011 10 16 0.00 0.00
2:53 pm 14:53 Cloudy 66 18.9 60 15.6 81 81 Calm 29.81 1010 10 16 0.00 0.00
3:53 pm 15:53 Cloudy 66 18.9 59 15 78 78 Calm 29.79 1009 10 16 0.00 0.00
4:53 pm 16:53 Cloudy 66 18.9 60 15.6 81 81 N 3 6 29.77 1008 10 16 0.00 0.00
5:27 pm 17:27 Cloudy with Drizzle 64 17.8 61 16.1 90 90 NW 6 9 29.74 1007 6 10 0.00 0.03
5:53 pm 17:53 Cloudy with Drizzle 64 17.8 62 16.7 93 93 NW 7 11 29.76 1008 7 11 0.00 0.03
6:05 pm 18:05 Cloudy with Light Rain 61 16.1 60 15.6 97 97 NW 10 17 29.77 1008 3 4 0.00 0.03
6:53 pm 18:53 Cloudy with Light Rain 59 15 58 14.4 96 96 NNW 10 17 29.80 1009 3 4 0.02 0.51
7:17 pm 19:17 Cloudy with Light Rain 59 15 58 14.4 96 96 NW 10 17 29.80 1009 4 6 0.00 0.03
7:53 pm 19:53 Cloudy 59 15 58 14.4 96 96 NW 7 11 29.81 1009 8 13 0.01 0.25
8:53 pm 20:53 Cloudy 59 15 57 13.9 93 93 NW 10 17 29.83 1010 10 16 0.00 0.00
9:53 pm 21:53 Cloudy 59 15 57 13.9 93 93 WNW 8 13 29.84 1011 10 16 0.00 0.00
10:53 pm 22:53 Cloudy 58 14.4 56 13.3 93 93 NNW 8 13 29.81 1010 10 16 0.00 0.00
11:37 pm 23:37 Cloudy 58 14.4 56 13.3 93 93 Calm 29.83 1010 10 16 0.00 0.00
11:53 pm 23:53 Cloudy 57 13.9 56 13.3 96 96 E 3 6 29.82 1010 10 16 0.00 0.00

Powered by AerisWeather